Printer-friendly version

IAU Minor Planet Center

Minor Planet Center

MPEC 2007-S60 : 2007 SP11

The following Minor Planet Electronic Circular may be linked-to from your own Web pages, but must not otherwise be redistributed electronically.


Read MPEC 2007-S59 Read MPEC 2007-S61


M.P.E.C. 2007-S60                                Issued 2007 Sept. 27, 19:20 UT

     The Minor Planet Electronic Circulars contain information on unusual
         minor planets and routine data on comets.  They are published
   on behalf of Commission 20 of the International Astronomical Union by the
          Minor Planet Center, Smithsonian Astrophysical Observatory,
                          Cambridge, MA 02138, U.S.A.

             Prepared using the Tamkin Foundation Computer Network

                              MPC@CFA.HARVARD.EDU
          URL http://www.cfa.harvard.edu/iau/mpc.html  ISSN 1523-6714

                                   2007 SP11

Observations:
     K07S11P* C2007 09 25.46397 08 24 14.61 +45 11 26.3          20.7 V ES060G96
     K07S11P  C2007 09 25.47042 08 24 15.73 +45 11 27.9          20.9 V ES060G96
     K07S11P  C2007 09 25.47674 08 24 17.13 +45 11 28.5          19.8 V ES060G96
     K07S11P  C2007 09 25.48311 08 24 18.25 +45 11 30.0          20.7 V ES060G96
     K07S11P  C2007 09 26.46788 08 27 28.09 +45 14 13.6          20.7 V ES060G96
     K07S11P  C2007 09 26.47228 08 27 28.96 +45 14 15.7          20.2 V ES060G96
     K07S11P  C2007 09 26.47669 08 27 29.77 +45 14 15.0          20.8 V ES060G96
     K07S11P  C2007 09 26.48108 08 27 30.60 +45 14 16.3          20.9 V ES060G96
     K07S11P  C2007 09 27.47672 08 30 42.33 +45 16 44.8          20.4 V ES060G96
     K07S11P  C2007 09 27.48155 08 30 43.30 +45 16 42.7          20.4 V ES060G96
     K07S11P  C2007 09 27.48639 08 30 44.31 +45 16 43.2          21.6 V ES060G96
     K07S11P  C2007 09 27.49121 08 30 45.14 +45 16 43.6          20.8 V ES060G96

Observer details:
G96 Mt. Lemmon Survey.  Observer A. Boattini.  Measurers E. C. Beshore,
    A. Boattini, G. J. Garradd, A. R. Gibbs, A. D. Grauer, R. E. Hill,
    R. A. Kowalski, S. M. Larson, R. H. McNaught.  1.5-m reflector + CCD.

Orbital elements:
2007 SP11                                                Earth MOID = 0.0624 AU
Epoch 2007 Oct. 27.0 TT = JDT 2454400.5                 MPC
M 142.70741              (2000.0)            P               Q
n   1.26495972     Peri.  299.42289     -0.01502345     +0.98366555
a   0.8467429      Node   328.14753     -0.75847602     -0.12810731
e   0.3668502      Incl.   19.87090     -0.65152776     +0.12645398
P   0.78           H   18.8           G   0.15           U   9
Residuals in seconds of arc
070925 G96  0.0   0.2+    070926 G96  0.1-  0.3-    070927 G96  0.7-  2.5+
070925 G96  1.1-  0.4+    070926 G96  0.2+  1.0+    070927 G96  0.1-  0.5-
070925 G96  1.0+  0.4-    070926 G96  0.1-  0.6-    070927 G96  0.8+  0.8-
070925 G96  0.0   0.2-    070926 G96  0.1-  0.1-    070927 G96  0.0   1.2-

Ephemeris:
2007 SP11                a,e,i = 0.85, 0.37, 20                  q = 0.5361
Date    TT    R. A. (2000) Decl.     Delta      r     Elong.  Phase     V
2007 09 27    08 29.16   +45 15.6    0.787    1.014    67.8    66.3    20.6
2007 10 07    09 01.01   +45 25.3    0.785    1.058    71.5    63.7    20.7
2007 10 17    09 31.91   +45 11.8    0.770    1.094    75.3    61.8    20.6
2007 10 27    10 01.56   +44 42.3    0.742    1.122    79.1    60.4    20.6
2007 11 06    10 29.94   +44 02.4    0.702    1.142    82.9    59.5    20.5
2007 11 16    10 57.10   +43 17.6    0.653    1.154    86.7    58.9    20.3
2007 11 26    11 23.23   +42 30.7    0.596    1.157    90.5    58.5    20.1
2007 12 06    11 48.77   +41 43.6    0.531    1.153    94.1    58.5    19.8
2007 12 16    12 14.28   +40 56.9    0.461    1.140    97.5    58.8    19.5
2007 12 26    12 40.88   +40 05.9    0.387    1.120   100.4    59.8    19.1
2008 01 05    13 11.03   +38 58.1    0.309    1.091   102.1    61.8    18.6
2008 01 15    13 50.14   +36 56.5    0.230    1.054   101.4    66.2    18.1
2008 01 25    14 52.86   +31 38.8    0.155    1.009    94.6    76.6    17.4
2008 02 04    16 54.42   +13 08.2    0.0974   0.955    69.2   105.3    17.5

Sonia Keys                   (C) Copyright 2007 MPC           M.P.E.C. 2007-S60

Read MPEC 2007-S59 Read MPEC 2007-S61


Our Web policy. Index to the CBAT/MPC/ICQ pages.


Valid HTML 4.01!